DW8534 Weather Reports


Display with metric or nautical units.
time (UTC)temp
F
wind
direction
speed
MPH
gust
MPH
rain 1hr
in
rain 24hr
in
rain mn
in
humidity
%
barometer
mb
20260503193048 78 225 5.0 0.0 0.00 0.00 0.00 49 1015.5
20260503191542 78 212 7.0 0.0 0.00 0.00 0.00 46 1015.7
20260503190041 77 150 6.0 0.0 0.00 0.00 0.00 47 1016.0
20260503184553 78 199 6.0 0.0 0.00 0.00 0.00 49 1016.1
20260503183052 77 188 9.0 0.0 0.00 0.00 0.00 45 1016.2
20260503181538 77 196 8.0 0.0 0.00 0.00 0.00 44 1016.6
20260503180036 77 198 7.0 0.0 0.00 0.00 0.00 49 1016.7
20260503174533 76 211 5.0 0.0 0.00 0.00 0.00 52 1017.1
20260503173033 76 171 6.0 0.0 0.00 0.00 0.00 52 1017.2
20260503171531 76 188 4.0 0.0 0.00 0.00 0.00 57 1017.5
20260503081534 58 196 3.0 0.0 0.00 0.00 0.00 72 1016.3
20260503071524 59 196 2.0 0.0 0.00 0.00 0.00 68 1016.8
20260503054516 60 165 1.0 0.0 0.00 0.00 0.00 65 1016.9
20260503053015 60 165 2.0 0.0 0.00 0.00 0.00 65 1016.8
20260503051512 61 166 1.0 0.0 0.00 0.00 0.00 65 1016.6
20260503050026 61 166 1.0 0.0 0.00 0.00 0.00 65 1016.5
20260503044509 61 166 1.0 0.0 0.00 0.00 0.00 65 1016.5
20260503043011 61 166 1.0 0.0 0.00 0.00 0.00 66 1016.5
20260503041510 61 166 1.0 0.0 0.00 0.00 0.00 65 1016.6
20260503040008 62 166 1.0 0.0 0.00 0.00 0.00 65 1016.7
20260503034508 62 166 1.0 0.0 0.00 0.00 0.00 65 1016.7
20260503033008 62 166 1.0 0.0 0.00 0.00 0.00 65 1016.7
20260503031507 64 253 0.0 0.0 0.00 0.00 0.00 59 1016.5
20260503030007 64 254 1.0 0.0 0.00 0.00 0.00 59 1016.4
20260503024508 65 258 0.0 0.0 0.00 0.00 0.00 59 1016.4
20260503023005 66 258 1.0 0.0 0.00 0.00 0.00 57 1016.2
20260503021507 67 258 0.0 0.0 0.00 0.00 0.00 54 1016.0
20260503020005 67 258 0.0 0.0 0.00 0.00 0.00 52 1015.9
20260503014504 68 258 0.0 0.0 0.00 0.00 0.00 50 1015.9
20260503013011 68 258 0.0 0.0 0.00 0.00 0.00 48 1015.8
20260503011504 70 258 0.0 0.0 0.00 0.00 0.00 44 1015.7
20260503010003 71 258 1.0 0.0 0.00 0.00 0.00 45 1015.7
20260503004503 72 259 0.0 0.0 0.00 0.00 0.00 46 1015.6
20260503003002 73 259 2.0 0.0 0.00 0.00 0.00 45 1015.6
20260503001502 75 259 1.0 0.0 0.00 0.00 0.00 44 1015.5
20260503000001 77 260 0.0 0.0 0.00 0.00 0.00 43 1015.5
20260502234501 77 260 0.0 0.0 0.00 0.00 0.00 38 1015.6
20260502233111 77 267 0.0 0.0 0.00 0.00 0.00 37 1015.6
20260502231613 77 267 1.0 0.0 0.00 0.00 0.00 37 1015.6
20260502230059 77 11 0.0 0.0 0.00 0.00 0.00 37 1015.8
20260502224559 77 278 1.0 0.0 0.00 0.00 0.00 37 1015.8
20260502223059 77 308 1.0 0.0 0.00 0.00 0.00 37 1015.9
20260502221604 77 266 1.0 0.0 0.00 0.00 0.00 33 1016.0
20260502220104 77 244 1.0 0.0 0.00 0.00 0.00 36 1016.0
20260502214606 77 346 1.0 0.0 0.00 0.00 0.00 40 1016.0
20260502213055 76 254 2.0 0.0 0.00 0.00 0.00 40 1016.2
20260502211556 76 284 1.0 0.0 0.00 0.00 0.00 36 1016.4
20260502210051 76 281 1.0 0.0 0.00 0.00 0.00 37 1016.5
20260502204553 75 260 3.0 0.0 0.00 0.00 0.00 36 1016.6
20260502203057 75 314 2.0 0.0 0.00 0.00 0.00 42 1016.7
20260502201551 76 242 3.0 0.0 0.00 0.00 0.00 41 1016.8
20260502200049 76 329 1.0 0.0 0.00 0.00 0.00 39 1017.1
20260502194545 75 246 2.0 0.0 0.00 0.00 0.00 41 1017.1